Temperature
14 14 14 14 14 14 14 14 14 14 14 14 14 15 15 15 15 15 15 15 15 15 15 15 15 15 15 15 15 15 15 15 15 15 15 15 15 15 15 15 15 15 15
13 13 14 14 14 14 14 14 14 14 14 14 14 14 14 14 15 15 15 15 15 15 15 15 15 15 15 15 15 15 15 15 15 15 15 15 15 15 15 15 15 14 15
13 13 13 13 13 13 14 14 14 14 14 14 14 14 14 14 14 14 14 14 14 14 14 14 14 14 14 14 15 15 15 15 15 15 14 14 14 14 14 14 14 14 14
13 13 13 13 13 13 13 14 14 14 14 14 14 14 14 14 14 14 14 14 14 14 14 14 14 14 14 14 14 14 14 15 14 14 14 14 14 14 14 14 14 14 14
12 12 13 13 13 13 13 13 13 13 14 14 14 14 14 14 14 14 14 14 14 14 14 14 14 14 14 14 14 14 14 14 14 14 14 13 13 13 14 14 14 14 14
12 12 12 13 13 13 13 13 13 13 13 13 14 13 13 14 14 14 14 14 14 14 14 14 14 14 14 14 14 14 14 14 14 13 13 13 13 13 13 13 13 13 14
12 12 12 12 12 12 12 13 13 13 13 13 13 13 13 13 13 13 13 14 14 14 14 14 14 14 14 14 14 14 14 14 13 13 13 13 13 13 13 13 13 13 13
11 11 12 12 12 12 12 12 12 12 13 13 13 13 13 13 13 13 13 13 13 13 13 13 13 13 13 13 13 13 13 13 13 13 12 13 13 13 13 13 13 13 13
11 11 11 11 11 11 12 12 12 12 12 12 12 12 13 13 13 13 13 13 13 13 13 13 13 13 13 13 13 13 13 13 13 13 12 12 12 12 12 12 12 12 12
10 10 11 11 11 11 11 11 12 12 12 12 12 12 12 12 12 13 13 13 13 13 12 12 12 12 12 12 12 12 12 12 12 12 12 12 12 12 12 12 12 12 12
10 10 10 10 10 10 11 11 11 11 11 11 11 12 12 12 12 12 12 12 12 12 12 12 12 12 12 12 12 12 12 12 12 12 12 12 12 12 12 12 12 12 12
9 9 9 10 10 10 10 10 10 11 11 11 11 11 11 11 11 12 12 12 12 12 12 12 12 12 12 11 11 11 11 11 11 11 12 12 12 12 12 12 12 11 12
9 9 9 9 9 9 10 10 10 10 10 10 11 11 11 11 11 11 11 11 11 11 11 11 11 11 11 11 11 11 11 11 11 11 11 11 11 11 11 11 11 11 11
8 8 8 9 9 9 9 9 9 10 10 10 10 10 10 11 11 11 11 11 11 11 11 11 11 11 11 11 11 10 10 10 10 11 11 11 11 11 11 11 11 11 11
7 8 8 8 8 9 9 9 9 9 9 9 9 10 10 10 10 10 10 10 10 11 11 11 10 10 10 10 10 10 10 10 10 10 10 11 11 11 11 11 11 11 10
7 7 7 7 8 8 8 8 8 8 9 9 9 9 9 9 10 10 10 10 10 10 10 10 10 10 10 10 10 10 10 10 10 10 10 10 10 10 10 10 10 10 10
6 6 6 7 7 7 7 7 8 8 8 8 8 9 9 9 9 9 9 9 9 9 10 10 10 9 10 10 10 10 10 10 10 9 10 10 10 10 10 10 10 10 10
5 6 6 6 6 7 7 7 7 7 7 8 8 8 8 8 9 9 9 9 9 9 9 9 9 9 9 9 9 9 9 9 9 9 9 9 9 9 9 9 9 9 9
5 5 5 6 6 6 6 7 7 7 7 7 7 8 8 8 8 8 8 8 8 8 8 8 9 8 8 8 9 9 9 9 8 9 9 9 9 9 9 9 9 9 9
4 5 5 5 5 6 6 6 6 6 6 7 7 7 7 7 8 8 8 8 8 8 8 8 8 8 8 8 8 8 8 8 8 8 8 8 8 8 8 8 8 8 8
4 4 4 5 5 5 5 6 6 6 6 6 6 7 7 7 7 7 7 7 7 7 7 7 7 7 7 7 7 7 7 7 7 7 7 8 8 8 8 8 8 8 8
3 3 4 4 4 4 5 5 5 5 5 6 6 6 6 6 6 7 7 7 7 7 7 7 6 6 6 6 6 6 6 6 6 7 7 7 7 7 7 7 7 7 7
2 3 3 3 3 4 4 4 5 5 5 5 5 5 6 6 6 6 6 6 6 6 6 6 6 6 6 6 6 6 5 5 5 6 6 6 6 6 6 7 7 7 7
2 2 2 3 3 3 3 4 4 4 4 4 5 5 5 5 5 5 5 5 5 5 6 5 5 5 5 5 5 5 5 5 5 5 5 5 6 6 6 6 6 6 6
1 1 2 2 2 3 3 3 3 3 3 4 4 4 4 4 4 4 5 5 5 5 5 5 5 5 5 5 5 5 5 5 5 4 4 5 5 5 5 5 5 5 5
1 1 1 1 2 2 2 2 2 2 3 3 3 3 3 3 4 4 4 4 4 4 4 4 4 4 4 4 4 4 4 4 4 4 4 4 4 4 4 5 5 5 5
Wind_Speed
2 1 2 3 5 6 6 6 7 7 7 8 9 10 10 10 11 11 11 11 12 12 12 13 13 14 14 14 15 15 15 15 16 16 16 16 16 16 16 14 14 16 17
1 3 4 4 5 6 6 6 7 7 8 8 9 9 10 10 10 10 10 11 11 12 12 12 13 13 14 14 14 15 15 15 15 14 14 15 16 16 16 15 15 15 17
1 4 5 4 5 6 6 6 7 7 8 8 8 9 9 10 10 10 10 11 11 11 11 12 13 14 13 14 14 14 14 14 13 11 11 13 14 15 16 16 17 17 17
1 4 4 5 5 6 6 6 6 7 7 7 8 8 8 9 9 10 10 10 11 11 11 12 13 13 13 13 14 14 14 13 11 8 10 12 13 14 15 16 16 16 16
3 4 4 5 5 6 6 6 6 7 7 7 7 7 7 8 9 9 10 10 11 11 11 12 13 13 13 14 14 13 12 11 9 8 11 11 12 14 15 15 15 15 16
3 4 5 5 5 6 6 6 6 7 7 6 7 7 7 8 8 9 9 10 11 11 11 12 12 12 13 13 13 12 11 9 8 9 9 10 11 13 14 14 14 15 16
2 3 4 5 5 5 5 6 6 6 6 6 6 6 7 7 8 9 9 11 11 11 11 11 12 12 12 12 12 12 11 8 8 9 9 10 11 12 13 14 14 15 16
2 2 3 4 5 5 6 5 5 6 6 6 6 6 6 7 7 9 9 10 11 11 11 11 11 12 11 11 12 11 10 7 9 9 9 10 11 12 13 14 14 15 16
2 1 2 3 4 4 5 5 5 5 5 5 6 6 7 7 8 9 9 10 10 10 11 11 11 11 11 11 11 10 9 7 8 8 8 9 9 11 13 13 14 15 15
1 1 1 1 2 3 4 5 5 5 5 5 6 6 7 7 8 9 10 10 10 10 11 11 11 11 11 11 10 9 8 6 8 8 7 9 9 11 13 13 14 14 14
1 1 1 1 1 2 3 4 4 4 5 5 6 6 6 6 6 7 8 10 11 11 11 11 11 11 11 10 10 8 6 5 7 7 8 9 10 11 12 13 14 14 14
1 1 1 0 0 1 2 3 4 4 4 4 4 5 5 5 5 6 8 10 11 11 11 11 11 10 8 7 7 6 5 5 6 6 8 9 10 10 11 12 13 13 13
2 1 1 1 0 1 1 2 2 2 3 3 3 4 4 4 4 5 6 7 8 8 8 8 8 6 6 5 5 5 5 5 5 5 8 9 9 10 11 11 12 13 12
2 2 2 2 1 1 1 2 2 2 2 2 3 3 4 3 3 4 4 5 5 5 5 6 5 5 5 6 6 5 5 4 4 5 7 9 9 9 10 10 10 12 12
3 3 3 3 2 1 1 2 2 2 2 2 2 3 3 3 2 3 4 4 4 5 5 5 5 5 5 5 5 5 5 5 5 5 6 9 9 9 9 10 10 10 11
4 4 4 3 2 1 1 2 2 2 2 3 2 3 3 3 3 3 3 3 4 4 5 5 5 5 5 5 5 5 5 5 4 5 5 6 8 9 9 9 9 9 10
4 4 4 3 2 1 1 1 1 2 3 2 2 3 3 3 3 3 3 3 3 5 5 5 6 5 5 5 5 5 5 5 5 5 5 4 5 8 9 9 9 9 10
4 3 3 2 2 2 1 1 1 2 2 2 2 3 3 3 4 4 3 3 4 4 5 5 5 4 4 4 4 4 4 4 5 5 5 5 4 5 7 9 9 9 9
4 3 3 2 1 1 1 0 2 2 2 2 2 2 3 3 4 4 3 3 4 4 3 4 5 5 5 4 4 3 3 3 3 4 5 5 4 4 5 7 9 9 9
4 3 2 2 1 1 0 0 1 2 2 2 1 1 3 3 4 4 3 4 4 3 3 4 5 5 5 5 4 4 3 3 2 3 3 4 4 5 5 6 6 7 7
3 3 2 2 1 0 0 1 1 1 1 1 1 1 2 3 4 4 3 4 4 4 4 5 4 6 5 5 4 3 2 2 2 2 2 3 3 4 4 5 5 5 5
3 3 3 2 2 2 1 2 2 2 2 1 1 1 2 3 4 4 4 4 4 4 5 5 5 4 3 4 4 4 3 2 1 1 1 1 2 3 3 4 4 5 5
4 4 3 3 3 2 1 1 1 1 1 1 1 1 1 2 3 4 4 4 4 5 5 5 6 6 5 4 4 3 3 4 2 2 1 1 1 2 3 3 4 4 4
5 4 4 3 3 2 1 1 2 2 3 3 2 2 1 1 2 3 4 4 4 4 4 5 5 6 6 6 4 2 1 2 3 3 2 2 2 2 2 3 3 3 4
5 4 3 3 3 2 1 1 2 3 2 2 2 2 2 2 1 3 4 4 4 4 4 5 5 6 6 6 6 4 3 2 2 3 3 3 3 3 3 3 3 3 4
4 4 3 3 3 2 2 1 2 2 2 2 2 2 2 1 1 1 3 3 4 4 5 5 6 7 6 7 6 5 5 4 4 3 3 4 4 3 3 3 4 4 4
Wind_Direction
161 158 139 118 108 101 97 95 100 103 108 112 113 111 112 110 107 105 104 102 99 98 98 95 93 91 91 91 89 86 85 83 82 82 83 85 88 88 87 85 87 86 84
188 166 144 131 115 109 103 99 98 104 102 110 114 111 112 113 111 109 106 105 102 99 99 99 96 92 90 91 91 89 87 85 84 84 88 89 87 88 86 78 77 88 87
150 157 152 136 124 120 113 106 105 105 106 106 114 113 114 116 114 111 108 106 104 102 100 100 99 94 93 91 93 92 90 89 87 89 98 96 92 89 89 85 86 89 89
154 153 152 137 131 127 122 116 113 111 109 108 109 117 116 118 118 116 111 108 105 105 103 101 99 97 95 94 94 94 91 90 87 93 94 92 94 92 92 91 90 90 90
142 146 136 132 135 132 131 127 121 118 114 113 112 114 118 119 122 121 116 112 108 105 103 101 99 98 96 96 95 94 93 91 91 92 90 91 93 94 94 92 92 93 93
136 140 131 128 132 132 134 136 134 129 123 120 118 114 122 126 126 123 119 115 112 107 104 103 101 99 99 97 97 94 94 94 105 94 91 91 94 96 97 94 94 95 95
133 135 135 126 125 128 133 138 140 135 132 126 122 120 122 127 128 126 119 117 117 114 111 109 106 103 101 100 99 97 92 92 97 93 89 88 92 99 100 98 98 97 96
110 120 133 131 121 124 128 136 135 134 130 129 127 124 127 122 124 126 122 119 119 120 117 112 110 107 105 103 100 97 92 92 99 92 90 88 89 102 102 100 99 98 96
97 98 102 143 141 133 131 134 140 138 135 131 128 126 126 124 121 127 126 123 120 120 119 116 113 109 107 103 100 97 92 83 97 92 89 87 92 104 106 104 101 99 97
84 82 76 128 149 152 151 137 132 142 145 144 132 126 126 131 133 133 136 129 125 122 117 116 114 110 106 102 98 96 96 99 96 95 87 87 96 106 108 107 104 103 100
22 21 47 70 116 146 151 152 150 138 138 144 137 130 139 149 146 141 133 127 125 122 118 115 114 111 110 104 97 97 102 97 99 91 85 86 100 108 109 108 107 105 103
259 292 333 83 146 158 152 152 162 163 153 149 149 152 154 154 149 140 129 124 122 120 118 113 113 116 118 115 108 107 104 100 97 95 85 87 98 105 106 108 109 109 107
247 266 308 317 212 160 145 151 148 157 159 155 149 155 158 149 145 141 136 130 128 128 125 120 118 119 118 113 111 106 96 98 93 96 91 89 96 102 106 109 112 113 112
278 282 303 328 299 200 163 155 149 142 150 151 150 148 146 142 148 148 141 141 140 136 131 130 125 121 118 117 115 105 94 90 88 85 84 88 95 102 106 111 116 116 115
307 306 313 321 312 273 184 163 158 157 155 148 147 145 143 144 145 153 149 138 138 138 138 136 133 130 124 117 111 106 97 90 94 92 89 84 89 96 103 109 113 119 118
315 309 308 309 306 286 214 179 169 157 149 140 150 142 147 151 149 154 149 143 141 147 146 143 139 135 129 121 110 103 99 95 92 94 92 96 82 81 92 106 107 109 118
307 310 312 309 317 309 261 191 157 140 141 130 147 154 145 148 155 150 150 144 149 150 149 145 139 133 129 124 116 103 94 90 90 90 86 91 97 83 80 94 103 104 106
300 300 305 316 324 324 327 178 126 129 134 129 143 160 157 160 155 154 155 151 155 152 149 148 148 143 139 134 122 105 94 87 85 81 82 80 92 101 92 83 90 96 100
299 294 297 304 315 324 327 42 121 125 120 122 135 158 163 172 159 157 153 150 152 150 149 149 156 154 148 138 124 108 95 88 91 85 84 76 80 93 105 100 93 89 91
301 294 288 290 311 342 23 75 121 115 102 96 107 136 156 166 164 159 151 153 152 147 155 152 150 153 150 139 119 101 84 83 83 81 90 85 84 89 97 107 108 99 88
320 306 298 284 284 279 148 194 189 179 170 139 128 144 149 156 159 160 159 161 158 158 161 155 150 152 151 145 136 122 91 87 85 81 86 91 97 102 104 105 108 110 105
321 310 293 288 277 258 233 216 210 190 190 185 179 141 135 156 161 164 167 169 172 165 160 157 156 160 157 165 165 161 169 181 157 110 111 112 116 118 117 116 116 114 115
333 324 307 289 281 281 258 176 136 143 147 160 167 156 152 154 166 165 166 168 175 170 173 174 172 170 172 175 177 179 181 198 179 174 175 174 165 141 140 135 127 128 131
326 321 318 314 293 289 263 196 186 201 214 221 212 202 178 161 173 180 172 167 168 170 177 182 183 182 178 184 189 207 209 154 173 175 187 194 205 193 176 162 158 157 150
330 329 327 327 323 315 281 216 209 213 227 229 199 199 179 156 177 195 179 173 174 177 181 183 187 191 187 189 192 189 174 176 192 186 192 196 210 218 206 194 190 185 173
344 343 337 339 338 341 335 266 221 216 208 198 198 210 202 181 191 202 186 183 186 185 188 189 191 198 197 193 196 196 191 187 190 188 197 198 206 211 209 205 204 198 191
Height
1531 1532 1532 1533 1535 1536 1536 1537 1538 1538 1539 1540 1540 1541 1541 1542 1542 1542 1543 1543 1543 1543 1543 1543 1543 1543 1543 1543 1543 1543 1543 1543 1543 1543 1543 1543 1543 1543 1543 1543 1543 1543 1543
1531 1532 1532 1533 1534 1535 1536 1537 1538 1539 1539 1540 1541 1541 1542 1542 1543 1543 1544 1544 1544 1544 1544 1544 1544 1544 1544 1544 1545 1545 1545 1545 1545 1545 1545 1545 1545 1545 1545 1545 1545 1545 1545
1530 1532 1532 1533 1534 1535 1536 1537 1538 1539 1539 1540 1541 1541 1542 1543 1543 1544 1544 1545 1545 1545 1545 1545 1545 1545 1545 1546 1546 1546 1546 1546 1547 1547 1547 1548 1547 1547 1547 1547 1547 1547 1547
1530 1531 1532 1533 1534 1535 1536 1537 1538 1538 1539 1540 1541 1542 1542 1543 1543 1544 1544 1545 1545 1546 1546 1546 1546 1546 1546 1547 1547 1547 1547 1548 1548 1549 1549 1549 1549 1549 1549 1549 1549 1550 1550
1530 1531 1532 1533 1534 1535 1536 1536 1537 1538 1539 1540 1541 1541 1542 1543 1543 1544 1545 1545 1545 1546 1546 1547 1547 1547 1547 1548 1548 1548 1549 1549 1550 1550 1550 1551 1551 1551 1551 1551 1551 1552 1552
1529 1530 1531 1532 1534 1534 1535 1536 1537 1537 1538 1539 1540 1541 1542 1542 1543 1544 1544 1545 1546 1546 1546 1547 1547 1548 1548 1549 1549 1549 1550 1550 1551 1552 1552 1552 1553 1553 1553 1553 1553 1553 1554
1529 1530 1531 1532 1533 1534 1535 1535 1536 1537 1538 1538 1539 1540 1541 1542 1543 1543 1544 1544 1545 1546 1546 1547 1548 1548 1549 1549 1550 1550 1551 1552 1553 1553 1553 1554 1554 1554 1555 1555 1555 1555 1555
1528 1529 1530 1531 1532 1533 1534 1534 1535 1535 1536 1537 1538 1539 1540 1541 1542 1543 1543 1544 1545 1546 1547 1547 1548 1549 1549 1550 1551 1551 1552 1553 1554 1554 1555 1555 1555 1556 1556 1556 1557 1557 1557
1528 1529 1529 1530 1531 1531 1532 1533 1534 1534 1535 1536 1537 1538 1539 1540 1541 1542 1543 1544 1545 1546 1547 1547 1548 1549 1550 1550 1551 1552 1553 1554 1555 1555 1556 1556 1556 1557 1557 1558 1558 1558 1559
1527 1528 1528 1529 1530 1530 1531 1532 1533 1533 1534 1535 1536 1537 1538 1539 1540 1541 1542 1543 1544 1545 1546 1547 1548 1549 1550 1551 1552 1553 1554 1555 1556 1556 1557 1557 1558 1558 1558 1559 1559 1560 1560
1526 1527 1527 1527 1528 1529 1529 1530 1531 1532 1533 1534 1534 1535 1536 1538 1539 1540 1541 1542 1544 1545 1546 1547 1548 1549 1550 1551 1552 1553 1554 1555 1556 1557 1557 1558 1558 1559 1560 1560 1561 1561 1561
1524 1525 1525 1525 1526 1527 1527 1528 1529 1530 1531 1532 1533 1534 1534 1536 1537 1538 1540 1541 1543 1544 1545 1546 1547 1548 1550 1551 1552 1553 1554 1556 1556 1557 1557 1558 1559 1560 1560 1561 1562 1562 1562
1523 1523 1523 1523 1524 1524 1525 1526 1527 1528 1529 1530 1531 1532 1533 1534 1535 1536 1538 1540 1541 1543 1544 1545 1547 1548 1549 1550 1552 1553 1554 1555 1556 1557 1558 1559 1559 1560 1561 1562 1562 1563 1563
1521 1521 1521 1521 1521 1522 1523 1524 1524 1525 1526 1528 1529 1530 1531 1532 1533 1534 1535 1537 1539 1541 1542 1544 1545 1547 1548 1550 1551 1552 1554 1555 1556 1557 1558 1559 1560 1561 1561 1562 1563 1563 1563
1519 1518 1518 1518 1519 1519 1520 1521 1522 1523 1524 1525 1526 1528 1529 1530 1531 1532 1533 1535 1537 1539 1540 1542 1544 1545 1547 1548 1550 1552 1553 1554 1555 1556 1557 1558 1560 1561 1561 1562 1563 1563 1564
1516 1516 1516 1516 1516 1517 1517 1518 1519 1520 1521 1523 1524 1525 1527 1528 1529 1530 1532 1533 1535 1537 1538 1540 1542 1544 1545 1547 1549 1550 1552 1553 1555 1556 1557 1558 1559 1560 1561 1562 1563 1563 1564
1513 1513 1513 1513 1513 1514 1514 1515 1516 1517 1519 1520 1522 1523 1524 1526 1527 1528 1530 1531 1532 1534 1536 1538 1540 1542 1544 1545 1547 1549 1551 1552 1554 1555 1556 1557 1559 1560 1561 1561 1562 1563 1564
1511 1511 1510 1511 1511 1511 1512 1512 1513 1515 1516 1518 1519 1520 1522 1523 1524 1526 1528 1529 1530 1532 1534 1536 1538 1540 1542 1543 1545 1547 1549 1550 1552 1554 1555 1556 1557 1559 1560 1560 1561 1562 1563
1508 1508 1507 1507 1507 1508 1509 1509 1510 1512 1513 1515 1516 1517 1519 1520 1521 1524 1525 1526 1528 1529 1531 1533 1535 1537 1539 1541 1543 1545 1546 1548 1550 1552 1553 1554 1556 1557 1559 1559 1560 1561 1562
1505 1505 1505 1505 1504 1505 1506 1506 1507 1509 1510 1511 1513 1514 1516 1517 1519 1520 1521 1524 1525 1527 1528 1530 1532 1534 1537 1538 1541 1543 1544 1546 1548 1549 1551 1552 1554 1555 1557 1558 1559 1560 1561
1502 1501 1501 1501 1501 1502 1502 1503 1504 1505 1506 1508 1509 1511 1512 1513 1515 1517 1519 1521 1522 1523 1525 1527 1529 1531 1533 1536 1538 1541 1543 1544 1546 1547 1548 1550 1551 1553 1554 1556 1557 1558 1559
1499 1498 1498 1498 1498 1499 1499 1500 1501 1502 1503 1504 1506 1507 1508 1510 1511 1513 1515 1517 1518 1519 1521 1523 1526 1527 1529 1532 1535 1537 1540 1543 1543 1544 1545 1547 1548 1550 1551 1553 1554 1555 1557
1496 1496 1496 1495 1496 1496 1496 1497 1498 1498 1499 1501 1502 1502 1504 1506 1507 1509 1511 1513 1514 1515 1517 1519 1522 1524 1525 1528 1531 1533 1536 1537 1539 1541 1542 1544 1545 1547 1548 1550 1551 1553 1554
1495 1494 1493 1493 1493 1493 1493 1493 1494 1494 1495 1496 1498 1499 1500 1502 1503 1505 1507 1508 1510 1511 1513 1515 1518 1520 1522 1524 1527 1529 1531 1531 1534 1536 1539 1540 1541 1543 1545 1547 1548 1550 1551
1493 1492 1491 1491 1491 1490 1490 1491 1491 1492 1493 1493 1494 1495 1496 1498 1500 1501 1502 1504 1505 1507 1509 1511 1513 1516 1517 1520 1522 1524 1526 1528 1529 1531 1533 1535 1537 1539 1541 1543 1545 1546 1547
1490 1490 1489 1488 1488 1488 1488 1488 1489 1489 1490 1490 1490 1491 1492 1493 1495 1497 1498 1500 1501 1503 1505 1506 1509 1511 1513 1515 1517 1520 1521 1523 1525 1527 1529 1530 1532 1535 1537 1539 1540 1542 1544